[[{"header":{"parameterUnit":"m.s-1","parameterCategory":2,"la1":30.2992,"la2":30.254,"lo1":-89.0895,"lo2":-89.0443,"dy":0.0025,"dx":0.0025,"nx":19,"ny":19,"refTime":"2026-04-09T03:00:00:Z","depth":"0","parameterNumber":2,"parameterNumberName":"U-component_of_CURRENTS"},"data":[0,0,0,-0.1439,-0.144,-0.1452,-0.1452,-0.141,-0.1409,0,0,0,0,0,0,0,0,0,0,0,-0.1429,-0.1429,-0.1439,-0.144,-0.1452,-0.1452,-0.141,-0.1409,0,0,0,0,0,0,0,0,0,0,0,-0.1429,-0.1429,-0.1429,-0.144,-0.1452,-0.1452,-0.141,-0.1414,0,0,0,0,0,0,0,0,0,0,-0.1409,-0.1416,-0.1429,-0.1429,-0.144,-0.1452,-0.1452,-0.1415,-0.1414,-0.1388,0,-0.1389,0,-0.14,-0.1405,-0.1405,0,0,0,-0.1437,-0.1417,-0.1414,-0.1429,-0.144,-0.1452,-0.1446,-0.1415,-0.1413,-0.1386,-0.1389,-0.1388,-0.14,-0.1405,-0.1405,-0.1378,-0.1378,0,0,-0.1436,-0.1436,-0.1416,-0.1414,-0.144,-0.1445,-0.1446,-0.1415,-0.1414,-0.1389,-0.1387,-0.1399,-0.1404,-0.1404,-0.1378,-0.1378,0,0,0,-0.1436,-0.1435,-0.1434,-0.1415,-0.1423,-0.1446,-0.1447,-0.1416,-0.1414,-0.1387,-0.1398,-0.1404,-0.1403,-0.1378,-0.1378,-0.149,0,0,0,-0.1435,-0.1435,-0.1434,-0.1435,-0.1424,-0.143,-0.1448,-0.1416,-0.1413,-0.1399,-0.1404,-0.1403,-0.1378,-0.1378,-0.1486,-0.1566,0,0,0,-0.1429,-0.1435,-0.1434,-0.1435,-0.1442,-0.1431,-0.1428,-0.1416,-0.142,-0.1405,-0.1403,-0.1378,-0.1378,-0.1483,-0.1559,-0.1701,0,0,0,-0.1431,-0.1429,-0.1434,-0.1445,-0.1442,-0.1453,-0.1428,-0.1428,-0.1418,-0.1404,-0.1378,-0.1378,-0.1482,-0.1555,-0.1696,-0.1842,-0.188,0,0,-0.1429,-0.1429,-0.1438,-0.1443,-0.1466,-0.1451,-0.1489,-0.1461,-0.1414,-0.1383,-0.1383,-0.1487,-0.1559,-0.17,-0.1862,-0.1901,0,0,0,-0.1439,-0.1446,-0.1453,-0.1472,-0.1477,-0.1531,-0.149,-0.149,-0.1481,-0.141,-0.1463,-0.1505,-0.1591,-0.1666,-0.1695,-0.1764,-0.138,-0.138,-0.138,-0.1423,-0.1448,-0.1479,-0.1513,-0.1536,-0.157,-0.1621,-0.1611,-0.1519,-0.1533,-0.1577,-0.1735,-0.1811,-0.1836,-0.1903,-0.1537,-0.1537,-0.1538,-0.1538,-0.1442,-0.1479,-0.1527,-0.1562,-0.1624,-0.1654,-0.1733,-0.172,-0.1791,-0.1662,-0.1741,-0.1754,-0.1877,-0.1935,-0.1545,-0.1544,-0.1543,-0.1542,-0.1542,-0.1451,-0.1479,-0.1498,-0.1586,-0.168,-0.1736,-0.1916,-0.1927,-0.1908,-0.1987,-0.2072,-0.2071,-0.2147,-0.2012,-0.2013,-0.2014,-0.2015,-0.2016,-0.2017,-0.1455,-0.1487,-0.154,-0.1632,-0.1705,-0.1842,-0.2022,-0.2139,-0.2256,-0.2235,-0.2236,-0.2218,-0.1881,-0.189,-0.2031,-0.2029,-0.2027,-0.2025,-0.2024,-0.1477,-0.1489,-0.1579,-0.1647,-0.1837,-0.2007,-0.2194,-0.2489,-0.2611,-0.2704,-0.2642,-0.2391,-0.239,-0.2365,-0.2385,-0.2646,-0.2646,-0.2646,-0.2646,-0.1483,-0.1502,-0.1614,-0.174,-0.1932,-0.209,-0.2416,-0.2671,-0.2881,-0.2947,-0.2934,-0.2839,-0.2811,-0.2826,-0.279,-0.2814,-0.3179,-0.3179,-0.318,-0.1493,-0.1533,-0.1606,-0.1733,-0.1956,-0.2165,-0.2432,-0.2794,-0.3116,-0.32,-0.301,-0.2988,-0.2833,-0.2783,-0.278,-0.2724,-0.2751,0,0]},{"header":{"parameterUnit":"m.s-1","parameterCategory":2,"la1":30.2992,"la2":30.254,"lo1":-89.0895,"lo2":-89.0443,"dy":0.0025,"dx":0.0025,"nx":19,"ny":19,"refTime":"2026-04-09T03:00:00:Z","depth":"0","parameterNumber":3,"parameterNumberName":"V-component_of_CURRENTS"},"data":[0,0,0,-0.0222,-0.0219,-0.0075,-0.0074,0.0117,0.0119,0,0,0,0,0,0,0,0,0,0,0,-0.0274,-0.0274,-0.0222,-0.0219,-0.0075,-0.0074,0.0117,0.0119,0,0,0,0,0,0,0,0,0,0,0,-0.0275,-0.0274,-0.0273,-0.0219,-0.0075,-0.0074,0.0117,0.0009,0,0,0,0,0,0,0,0,0,0,-0.013,-0.0194,-0.0274,-0.0273,-0.0218,-0.0075,-0.0074,0.0004,0.0016,0.005,0,0.0063,0,0.0092,0.0131,0.0131,0,0,0,-0.0205,-0.0204,-0.0157,-0.0273,-0.0217,-0.0076,-0.0136,0.0011,0.0024,0.0065,0.0066,0.0074,0.0095,0.0132,0.0133,0.0279,0.0279,0,0,-0.0213,-0.025,-0.0167,-0.015,-0.0189,-0.0141,-0.0132,0.0019,0.0024,0.0067,0.0078,0.0098,0.0133,0.0134,0.0279,0.0279,0,0,0,-0.0245,-0.0256,-0.0213,-0.0158,-0.0134,-0.0137,-0.0126,0.0018,0.0034,0.008,0.01,0.0134,0.0136,0.0278,0.0279,0.0221,0,0,0,-0.0249,-0.0275,-0.0217,-0.0238,-0.0137,-0.006,-0.0132,0.0023,0.0041,0.0099,0.0134,0.0138,0.0278,0.0279,0.0221,0.0158,0,0,0,-0.0279,-0.0278,-0.0263,-0.024,-0.0182,-0.0061,-0.0036,0.0028,0.0053,0.0131,0.0138,0.0278,0.0278,0.0222,0.0161,0.0163,0,0,0,-0.0318,-0.0306,-0.0265,-0.0241,-0.0184,-0.0095,-0.0037,0.0037,0.0099,0.0135,0.0278,0.0279,0.0222,0.0163,0.0165,0.017,0.0163,0,0,-0.0325,-0.0308,-0.0292,-0.0251,-0.019,-0.0113,-0.0039,0.0062,0.0124,0.0231,0.0235,0.0221,0.0162,0.0163,0.021,0.0202,0,0,0,-0.0308,-0.0299,-0.0272,-0.0227,-0.0151,-0.0091,0.0021,0.0075,0.0173,0.0163,0.0252,0.0216,0.0219,0.0227,0.0221,0.0537,0.0282,0.0282,0.0282,-0.0364,-0.0317,-0.0294,-0.0226,-0.0173,-0.0058,0.0,0.0097,0.017,0.0203,0.0193,0.0182,0.0192,0.0187,0.0513,0.0242,0.0242,0.0242,0.0242,-0.0388,-0.0382,-0.0327,-0.0292,-0.0219,-0.0154,-0.0019,0.0043,0.0137,0.0182,0.0189,0.0195,0.0176,0.0527,0.0238,0.0239,0.0239,0.024,0.024,-0.0437,-0.0432,-0.0407,-0.0379,-0.0341,-0.0242,-0.0223,-0.0092,0.005,0.0066,0.0109,0.0111,0.0397,0.0083,0.0083,0.0082,0.0082,0.0082,0.0082,-0.0507,-0.0481,-0.0522,-0.0479,-0.0498,-0.0475,-0.0348,-0.028,-0.0104,0.0026,0.0028,0.0445,0.0133,0.0115,0.0078,0.0079,0.0079,0.0079,0.008,-0.057,-0.0583,-0.066,-0.0698,-0.0741,-0.0802,-0.0642,-0.0453,-0.0304,-0.0209,0.0405,0.0035,0.0052,0.0058,0.004,-0.0015,-0.0015,-0.0015,-0.0015,-0.0647,-0.0645,-0.0821,-0.094,-0.1014,-0.0977,-0.097,-0.0641,0.0015,0.04,0.0548,0.0644,0.0634,0.0693,0.0685,0.0683,0.0793,0.0795,0.0797,-0.0714,-0.0768,-0.0937,-0.1056,-0.1164,-0.1184,-0.1178,-0.0747,0.0331,0.0866,0.0993,0.0959,0.1138,0.1096,0.1216,0.118,0.1184,0,0]}],[{"header":{"parameterUnit":"m.s-1","parameterCategory":2,"la1":30.2992,"la2":30.254,"lo1":-89.0895,"lo2":-89.0443,"dy":0.0025,"dx":0.0025,"nx":19,"ny":19,"refTime":"2026-04-09T03:00:00:Z","depth":"2","parameterNumber":2,"parameterNumberName":"U-component_of_CURRENTS"},"data":[0,0,0,-0.1372,-0.1372,-0.1384,-0.1384,-0.134,-0.1339,0,0,0,0,0,0,0,0,0,0,0,-0.1362,-0.1362,-0.1372,-0.1372,-0.1384,-0.1384,-0.134,-0.1339,0,0,0,0,0,0,0,0,0,0,0,-0.1362,-0.1362,-0.1362,-0.1372,-0.1384,-0.1384,-0.134,-0.1345,0,0,0,0,0,0,0,0,0,0,-0.1341,-0.1349,-0.1362,-0.1362,-0.1372,-0.1384,-0.1384,-0.1346,-0.1345,-0.1319,0,-0.132,0,-0.133,-0.1335,-0.1335,0,0,0,-0.1369,-0.1351,-0.1347,-0.1362,-0.1372,-0.1384,-0.1378,-0.1346,-0.1344,-0.1317,-0.1319,-0.1318,-0.1329,-0.1335,-0.1335,-0.1307,-0.1307,0,0,-0.1369,-0.1369,-0.1348,-0.1346,-0.1373,-0.1377,-0.1378,-0.1346,-0.1345,-0.1319,-0.1318,-0.1329,-0.1335,-0.1334,-0.1307,-0.1307,0,0,0,-0.1369,-0.1369,-0.1368,-0.1347,-0.1355,-0.1378,-0.1379,-0.1347,-0.1345,-0.1317,-0.1328,-0.1334,-0.1334,-0.1307,-0.1307,-0.1419,0,0,0,-0.1368,-0.1369,-0.1367,-0.1368,-0.1356,-0.1362,-0.1381,-0.1347,-0.1344,-0.1328,-0.1334,-0.1333,-0.1307,-0.1307,-0.1416,-0.1495,0,0,0,-0.1362,-0.1369,-0.1368,-0.1368,-0.1375,-0.1363,-0.1359,-0.1347,-0.135,-0.1335,-0.1333,-0.1307,-0.1307,-0.1413,-0.1488,-0.1628,0,0,0,-0.1365,-0.1363,-0.1368,-0.1378,-0.1375,-0.1384,-0.136,-0.1359,-0.1349,-0.1334,-0.1307,-0.1307,-0.1412,-0.1484,-0.1622,-0.1742,-0.1777,0,0,-0.1363,-0.1363,-0.1371,-0.1376,-0.1398,-0.1383,-0.1419,-0.1391,-0.1344,-0.1312,-0.1312,-0.1417,-0.1487,-0.1627,-0.1762,-0.1798,0,0,0,-0.1372,-0.1379,-0.1385,-0.1404,-0.1408,-0.1461,-0.142,-0.142,-0.1411,-0.1341,-0.1393,-0.1434,-0.1519,-0.1577,-0.1605,-0.1309,-0.1309,-0.1309,-0.1309,-0.1357,-0.1381,-0.1411,-0.1443,-0.1466,-0.1499,-0.155,-0.1539,-0.1448,-0.1463,-0.1506,-0.1664,-0.1722,-0.1745,-0.1467,-0.1467,-0.1468,-0.1468,-0.1468,-0.1376,-0.1411,-0.1458,-0.1492,-0.1553,-0.1583,-0.166,-0.1648,-0.1718,-0.1592,-0.1669,-0.1667,-0.1784,-0.1477,-0.1475,-0.1474,-0.1473,-0.1472,-0.1472,-0.1385,-0.1413,-0.1431,-0.1517,-0.161,-0.1666,-0.1842,-0.1853,-0.1836,-0.1914,-0.198,-0.1979,-0.179,-0.194,-0.1941,-0.1941,-0.1942,-0.1943,-0.1944,-0.139,-0.1421,-0.1474,-0.1564,-0.1635,-0.1771,-0.1948,-0.2062,-0.2169,-0.214,-0.2141,-0.1824,-0.1809,-0.1818,-0.1958,-0.1956,-0.1954,-0.1952,-0.1951,-0.1412,-0.1424,-0.1513,-0.158,-0.1766,-0.1896,-0.2107,-0.2387,-0.2513,-0.2595,-0.2295,-0.2282,-0.2278,-0.2254,-0.2273,-0.2524,-0.2524,-0.2524,-0.2524,-0.1419,-0.1437,-0.1547,-0.1671,-0.1857,-0.1965,-0.2194,-0.2316,-0.2449,-0.2393,-0.2396,-0.2258,-0.2242,-0.2224,-0.2199,-0.2211,-0.2446,-0.2445,-0.2444,-0.1429,-0.1469,-0.154,-0.1663,-0.1879,-0.2,-0.207,-0.2041,-0.2168,-0.2421,-0.2171,-0.2559,-0.2363,-0.2334,-0.2302,-0.2266,-0.2283,0,0]},{"header":{"parameterUnit":"m.s-1","parameterCategory":2,"la1":30.2992,"la2":30.254,"lo1":-89.0895,"lo2":-89.0443,"dy":0.0025,"dx":0.0025,"nx":19,"ny":19,"refTime":"2026-04-09T03:00:00:Z","depth":"2","parameterNumber":3,"parameterNumberName":"V-component_of_CURRENTS"},"data":[0,0,0,-0.0208,-0.0205,-0.0062,-0.0061,0.013,0.0131,0,0,0,0,0,0,0,0,0,0,0,-0.026,-0.0259,-0.0208,-0.0205,-0.0062,-0.0061,0.0129,0.0131,0,0,0,0,0,0,0,0,0,0,0,-0.026,-0.0259,-0.0258,-0.0204,-0.0062,-0.0061,0.0129,0.0022,0,0,0,0,0,0,0,0,0,0,-0.0116,-0.018,-0.0259,-0.0258,-0.0204,-0.0062,-0.0061,0.0017,0.0029,0.0063,0,0.0076,0,0.0104,0.0143,0.0143,0,0,0,-0.0191,-0.019,-0.0143,-0.0258,-0.0202,-0.0062,-0.0122,0.0024,0.0037,0.0078,0.0079,0.0086,0.0107,0.0144,0.0145,0.029,0.029,0,0,-0.0199,-0.0236,-0.0153,-0.0136,-0.0175,-0.0127,-0.0118,0.0032,0.0037,0.008,0.0091,0.011,0.0145,0.0146,0.029,0.029,0,0,0,-0.0231,-0.0242,-0.0199,-0.0144,-0.012,-0.0123,-0.0113,0.0031,0.0047,0.0093,0.0113,0.0146,0.0148,0.0289,0.029,0.0231,0,0,0,-0.0235,-0.0261,-0.0203,-0.0223,-0.0124,-0.0046,-0.0118,0.0036,0.0054,0.0112,0.0146,0.015,0.0289,0.029,0.0231,0.0168,0,0,0,-0.0264,-0.0264,-0.0249,-0.0226,-0.0169,-0.0048,-0.0023,0.0041,0.0066,0.0144,0.015,0.0289,0.0289,0.0232,0.0171,0.0172,0,0,0,-0.0303,-0.0291,-0.025,-0.0227,-0.017,-0.0082,-0.0024,0.0049,0.0111,0.0147,0.0289,0.029,0.0233,0.0173,0.0174,0.0172,0.0165,0,0,-0.0311,-0.0293,-0.0278,-0.0237,-0.0177,-0.01,-0.0028,0.0073,0.0135,0.0242,0.0246,0.0231,0.0172,0.0172,0.0211,0.0202,0,0,0,-0.0294,-0.0286,-0.0259,-0.0215,-0.0139,-0.0079,0.0032,0.0086,0.0183,0.0174,0.0262,0.0226,0.0228,0.0232,0.0226,0.0293,0.0293,0.0293,0.0293,-0.0351,-0.0304,-0.0283,-0.0216,-0.0163,-0.0048,0.0009,0.0106,0.0179,0.0212,0.0202,0.0189,0.0194,0.0189,0.0251,0.0251,0.025,0.025,0.025,-0.0377,-0.0371,-0.0317,-0.0282,-0.0209,-0.0145,-0.0011,0.005,0.0143,0.0189,0.0196,0.0199,0.0178,0.0246,0.0247,0.0247,0.0248,0.0248,0.0248,-0.0426,-0.0421,-0.0397,-0.037,-0.0332,-0.0234,-0.0216,-0.0085,0.0056,0.0071,0.011,0.0112,0.0129,0.0088,0.0088,0.0088,0.0087,0.0087,0.0087,-0.0497,-0.0471,-0.0512,-0.047,-0.0489,-0.0467,-0.0341,-0.0273,-0.0102,0.0026,0.0027,0.0134,0.014,0.0121,0.0083,0.0084,0.0084,0.0085,0.0085,-0.0561,-0.0573,-0.065,-0.0688,-0.073,-0.0785,-0.0633,-0.0449,-0.0303,-0.0212,0.0028,0.0031,0.0047,0.0054,0.0036,-0.0023,-0.0023,-0.0023,-0.0023,-0.0637,-0.0635,-0.081,-0.0928,-0.1001,-0.0957,-0.0955,-0.0672,-0.0309,-0.0102,-0.0099,-0.0064,-0.0058,-0.0045,-0.0035,-0.0055,-0.0137,-0.0137,-0.0138,-0.0704,-0.0758,-0.0925,-0.1043,-0.115,-0.1156,-0.1155,-0.082,-0.0288,-0.0145,-0.0146,-0.0025,0.0038,0.0043,0.0077,0.0086,0.0061,0,0]}],[{"header":{"parameterUnit":"m.s-1","parameterCategory":2,"la1":30.2992,"la2":30.254,"lo1":-89.0895,"lo2":-89.0443,"dy":0.0025,"dx":0.0025,"nx":19,"ny":19,"refTime":"2026-04-09T03:00:00:Z","depth":"4","parameterNumber":2,"parameterNumberName":"U-component_of_CURRENTS"},"data":[0,0,0,-0.0637,-0.064,-0.0761,-0.0762,-0.0753,-0.0753,0,0,0,0,0,0,0,0,0,0,0,-0.0595,-0.0597,-0.0637,-0.064,-0.0761,-0.0762,-0.0753,-0.0753,0,0,0,0,0,0,0,0,0,0,0,-0.0595,-0.0596,-0.0598,-0.0641,-0.0761,-0.0762,-0.0753,-0.0698,0,0,0,0,0,0,0,0,0,0,-0.0598,-0.0585,-0.0596,-0.0598,-0.0642,-0.0761,-0.0762,-0.0696,-0.0701,-0.0657,0,-0.07,0,-0.0731,-0.075,-0.075,0,0,0,-0.0621,-0.0582,-0.0624,-0.0598,-0.0643,-0.0761,-0.0701,-0.07,-0.0705,-0.0662,-0.07,-0.0701,-0.0731,-0.075,-0.075,-0.0753,-0.0753,0,0,-0.0614,-0.0599,-0.0622,-0.0628,-0.0702,-0.0698,-0.0705,-0.0705,-0.0711,-0.07,-0.0702,-0.0731,-0.075,-0.0749,-0.0752,-0.0753,0,0,0,-0.0608,-0.0594,-0.0639,-0.0627,-0.0666,-0.0702,-0.071,-0.0711,-0.0731,-0.0702,-0.0731,-0.0749,-0.0749,-0.0752,-0.0752,-0.086,0,0,0,-0.0603,-0.0592,-0.0636,-0.0625,-0.0668,-0.0712,-0.0717,-0.0731,-0.0732,-0.0731,-0.0749,-0.0748,-0.0752,-0.0752,-0.0856,-0.0922,0,0,0,-0.0585,-0.059,-0.0615,-0.0625,-0.0688,-0.0714,-0.0732,-0.0732,-0.0749,-0.075,-0.0748,-0.0751,-0.0752,-0.0853,-0.0916,-0.1044,0,0,0,-0.0547,-0.0597,-0.0615,-0.0669,-0.0687,-0.0746,-0.0733,-0.0762,-0.0766,-0.0749,-0.0752,-0.0752,-0.0852,-0.0912,-0.1039,-0.09,0,0,0,-0.0585,-0.0602,-0.063,-0.0649,-0.0712,-0.0727,-0.0787,-0.0787,-0.0759,-0.0735,-0.0737,-0.0857,-0.0915,-0.1043,-0.0943,0,0,0,0,-0.0624,-0.0647,-0.0667,-0.0712,-0.0752,-0.0821,-0.0815,-0.0826,-0.0846,-0.0772,-0.0842,-0.0875,-0.0954,-0.0854,-0.0756,-0.0756,-0.0756,-0.0756,-0.0756,-0.0643,-0.0668,-0.0716,-0.0758,-0.0804,-0.087,-0.0933,-0.0947,-0.0879,-0.091,-0.0951,-0.1105,-0.0999,-0.0925,-0.0926,-0.0926,-0.0927,-0.0927,-0.0927,-0.0678,-0.0702,-0.0754,-0.0809,-0.0886,-0.0942,-0.104,-0.1049,-0.1139,-0.1037,-0.1108,-0.0956,-0.0937,-0.0935,-0.0934,-0.0933,-0.0932,-0.0931,-0.0931,-0.0659,-0.068,-0.072,-0.0818,-0.0935,-0.1021,-0.1186,-0.1237,-0.1249,-0.1328,-0.1237,-0.1206,-0.1215,-0.1362,-0.1363,-0.1364,-0.1365,-0.1365,-0.1366,-0.0621,-0.0667,-0.0732,-0.0843,-0.0932,-0.1083,-0.1284,-0.1379,-0.1432,-0.1366,-0.1368,-0.1253,-0.1239,-0.124,-0.1379,-0.1377,-0.1375,-0.1374,-0.1373,-0.06,-0.063,-0.0718,-0.0802,-0.1009,-0.1114,-0.1324,-0.1471,-0.1586,-0.159,-0.1402,-0.1397,-0.1364,-0.1348,-0.1351,-0.1529,-0.1528,-0.1526,0,-0.0584,-0.0605,-0.072,-0.0842,-0.0998,-0.1134,-0.1283,-0.1417,-0.1467,-0.139,-0.1556,-0.1336,-0.1331,-0.1281,-0.1266,-0.1262,0,0,0,-0.0587,-0.0614,-0.0684,-0.0798,-0.0969,-0.1137,-0.1312,-0.133,-0.1431,-0.1528,-0.1497,-0.1505,-0.1462,-0.1419,-0.1357,-0.134,-0.134,0,0]},{"header":{"parameterUnit":"m.s-1","parameterCategory":2,"la1":30.2992,"la2":30.254,"lo1":-89.0895,"lo2":-89.0443,"dy":0.0025,"dx":0.0025,"nx":19,"ny":19,"refTime":"2026-04-09T03:00:00:Z","depth":"4","parameterNumber":3,"parameterNumberName":"V-component_of_CURRENTS"},"data":[0,0,0,-0.0023,-0.0022,0.0054,0.0055,0.0208,0.021,0,0,0,0,0,0,0,0,0,0,0,-0.0049,-0.0049,-0.0023,-0.0022,0.0054,0.0055,0.0208,0.021,0,0,0,0,0,0,0,0,0,0,0,-0.0049,-0.0049,-0.0049,-0.0022,0.0054,0.0055,0.0208,0.0141,0,0,0,0,0,0,0,0,0,0,0.0062,0.0018,-0.0049,-0.0049,-0.0022,0.0054,0.0055,0.0138,0.0145,0.0183,0,0.0181,0,0.0191,0.0219,0.022,0,0,0,-0.0002,0.0011,0.0033,-0.0049,-0.0021,0.0054,0.0026,0.0142,0.015,0.0194,0.0183,0.0188,0.0194,0.022,0.0221,0.0332,0.0332,0,0,-0.0006,-0.0029,0.0026,0.0037,-0.0018,0.0023,0.0028,0.0147,0.015,0.0184,0.0192,0.0197,0.0221,0.0222,0.0332,0.0332,0,0,0,-0.0032,-0.0032,-0.0014,0.0032,0.0037,0.0025,0.003,0.0145,0.015,0.0194,0.0198,0.0222,0.0224,0.0332,0.0332,0.026,0,0,0,-0.0033,-0.0048,-0.0017,-0.0028,0.0034,0.0082,0.0025,0.0142,0.0155,0.0198,0.0222,0.0225,0.0332,0.0332,0.0261,0.0199,0,0,0,-0.005,-0.005,-0.0046,-0.003,-0.0006,0.008,0.0094,0.0145,0.0158,0.022,0.0226,0.0332,0.0332,0.0263,0.0204,0.0191,0,0,0,-0.0066,-0.0082,-0.0047,-0.0056,-0.0007,0.0036,0.0093,0.0139,0.0187,0.0223,0.0332,0.0332,0.0263,0.0206,0.0193,0.01,0,0,0,-0.0097,-0.0086,-0.0089,-0.0057,-0.0043,0.0028,0.0062,0.0147,0.0208,0.03,0.0303,0.0261,0.0204,0.0191,0.0121,0,0,0,0,-0.0106,-0.0113,-0.01,-0.0084,-0.0035,0.0003,0.0095,0.0142,0.0221,0.0234,0.0288,0.0254,0.0248,0.0203,0.0334,0.0334,0.0333,0.0333,0.0333,-0.0176,-0.0147,-0.0154,-0.0114,-0.0083,0.0002,0.0043,0.0127,0.0202,0.0226,0.0216,0.0181,0.0132,0.0258,0.0258,0.0257,0.0257,0.0257,0.0257,-0.0231,-0.0239,-0.0203,-0.0201,-0.0147,-0.0107,-0.0003,0.0053,0.0125,0.0182,0.0181,0.0155,0.025,0.0251,0.0252,0.0253,0.0254,0.0254,0.0254,-0.028,-0.0283,-0.0278,-0.028,-0.0266,-0.0191,-0.019,-0.0084,0.0035,0.0039,0.0024,0.0134,0.0116,0.0055,0.0054,0.0054,0.0054,0.0054,0.0053,-0.0335,-0.0331,-0.0371,-0.0365,-0.0387,-0.0385,-0.03,-0.0251,-0.0119,-0.0086,0.0018,0.0113,0.0119,0.0106,0.0048,0.0049,0.005,0.005,0.0051,-0.0397,-0.0398,-0.047,-0.0507,-0.0567,-0.0564,-0.0489,-0.0377,-0.0333,-0.0263,-0.0132,-0.0121,-0.0106,-0.0094,-0.0114,-0.024,-0.0241,-0.0243,0,-0.0444,-0.0446,-0.0571,-0.067,-0.0739,-0.0686,-0.0664,-0.0568,-0.0391,-0.0404,-0.0314,-0.0172,-0.0162,-0.0148,-0.0139,-0.0167,0,0,0,-0.0489,-0.0523,-0.0637,-0.0735,-0.0825,-0.0744,-0.066,-0.0623,-0.0428,-0.0378,-0.0279,-0.027,-0.0103,0.0033,0.0082,0.009,0.0071,0,0]}]]